This is the latest recevied weather packets stored in our database for station/object K1RFS. If no packets are shown the sender has not sent any weather packets the latest 10 day(s).
| Time | Temp. | Humidity | Pressure | Rain* | Wind** | Luminosity | Snow |
|---|---|---|---|---|---|---|---|
| 1788662649 | 25.56° C | 19% | 1000.8 hPa | 0 mm | - | 0 W/m² | - |
| 1788662344 | 25.56° C | 19% | 1000.6 hPa | 0 mm | - | 0 W/m² | - |
| 1788662041 | 26.11° C | 19% | 1000.7 hPa | 0 mm | - | 0 W/m² | - |
| 1788661740 | 26.11° C | 19% | 1000.4 hPa | 0 mm | - | 0 W/m² | - |
| 1788661436 | 26.11° C | 19% | 1000.4 hPa | 0 mm | - | 0 W/m² | - |
| 1788661132 | 26.11° C | 19% | 1000.5 hPa | 0 mm | - | 0 W/m² | - |
| 1788660830 | 26.11° C | 20% | 1000.5 hPa | 0 mm | - | 0 W/m² | - |
| 1788660526 | 26.67° C | 19% | 1000.4 hPa | 0 mm | - | 0 W/m² | - |
| 1788660224 | 26.67° C | 19% | 1000.2 hPa | 0 mm | - | 1 W/m² | - |
| 1788659920 | 26.67° C | 19% | 1000.5 hPa | 0 mm | - | 2 W/m² | - |
| 1788659619 | 26.67° C | 19% | 1000.2 hPa | 0 mm | - | 3 W/m² | - |
| 1788659319 | 27.22° C | 18% | 1000.2 hPa | 0 mm | - | 4 W/m² | - |
| 1788659013 | 27.22° C | 18% | 1000.4 hPa | 0 mm | - | 6 W/m² | - |
| 1788658710 | 27.78° C | 17% | 1000.2 hPa | 0 mm | - | 8 W/m² | - |
| 1788658405 | 27.78° C | 18% | 1000.4 hPa | 0 mm | - | 10 W/m² | - |
| 1788658101 | 27.78° C | 17% | 1000.4 hPa | 0 mm | - | 12 W/m² | - |
| 1788657800 | 28.33° C | 17% | 1000.5 hPa | 0 mm | - | 15 W/m² | - |
| 1788657495 | 28.33° C | 17% | 1000.5 hPa | 0 mm | - | 18 W/m² | - |
| 1788657189 | 28.89° C | 16% | 1000.6 hPa | 0 mm | - | 20 W/m² | - |
| 1788656886 | 28.89° C | 16% | 1000.4 hPa | 0 mm | - | 22 W/m² | - |
| 1788656581 | 28.89° C | 16% | 1000.4 hPa | 0 mm | - | 26 W/m² | - |
| 1788656276 | 28.89° C | 16% | 1000.2 hPa | 0 mm | - | 33 W/m² | - |
| 1788655975 | 29.44° C | 16% | 1000.4 hPa | 0 mm | - | 41 W/m² | - |
| 1788655674 | 30° C | 15% | 1000.6 hPa | 0 mm | - | 49 W/m² | - |
| 1788655370 | 30° C | 16% | 1000.7 hPa | 0 mm | - | 58 W/m² | - |
* Rain latest hour (hover to see other rain measurements)
** Current wind speed in m/s (hover to see current wind gust speed)